Regional Weather Roundup
Issued by NWS

Home | Current Version | Previous Version | Graphics & Text | Print | Product List | Glossary On
Versions: 1 2 3 4 5 6 7 8 9 10 11 12 13 14 15 16 17 18 19 20 21 22 23 24 25 26 27 28 29 30 31 32 33 34 35 36 37 38 39 40 41 42 43 44 45 46 47 48 49 50
000
ASUS43 KDTX 250810
RWRMI
MICHIGAN HOURLY REGIONAL WEATHER ROUNDUP
NATIONAL WEATHER SERVICE DETROIT/PONTIAC MI
ISSUED BY NATIONAL WEATHER SERVICE GRAND RAPIDS MI
400 AM EDT TUE JUL 25 2017

NOTE: "FAIR" INDICATES FEW OR NO CLOUDS BELOW 12,000 FEET WITH NO
SIGNIFICANT WEATHER AND/OR OBSTRUCTION TO VISIBILITY.

MIZ047>049-052>055-059>063-066>070-074>076-081>083-250900-
SOUTHEAST LOWER MICHIGAN

CITY           SKY/WX    TMP DP  RH WIND       PRES   REMARKS
ADRIAN         CLEAR     52  51  97 CALM      30.16S
ALMA           FOG       51  50  97 MISG      30.16S VSB 1/2
ANN ARBOR      CLEAR     47  47 100 SW3       30.15R
BAD AXE        CLEAR     49  48  98 CALM      30.15S
DETROIT CITY   CLEAR     58  53  84 N6        30.14R
DETROIT        PTCLDY    58  52  80 N3        30.15R
FLINT          CLEAR     49  48  97 CALM      30.16R
GROSSE ILE     CLEAR     59  52  78 N5        30.13R
HILLSDALE      CLEAR     52  52 100 CALM      30.16S
HOWELL         CLEAR     53  52  97 CALM      30.15S

CITY           SKY/WX    TMP DP  RH WIND       PRES   REMARKS
JACKSON        CLEAR     53  52  96 CALM      30.16S
LANSING        CLEAR     56  52  86 CALM      30.16S
MASON            N/A     53  53  99 CALM      30.16S FOG
MONROE         CLEAR     53  52  97 CALM      30.14R
MT. CLEMENS    CLEAR     56  53  88 NW5       30.12R
PONTIAC        CLEAR     54  52  93 CALM      30.14R
PORT HOPE        N/A     65  55  70 NE9       30.13S
PORT HURON     CLEAR     57  54  88 NW5       30.13S
TRI CITIES     CLEAR     57  56  96 CALM      30.16S
YPSILANTI      CLEAR     55  53  93 NW3       30.15R
$$
MIZ043>046-050>051-056>058-064>065-071>073-077>080-250900-
SOUTHWEST LOWER MICHIGAN

CITY           SKY/WX    TMP DP  RH WIND       PRES   REMARKS
BATTLE CREEK   CLEAR     57  55  93 CALM      30.17R
BENTON HARBOR  CLEAR     57  55  93 CALM      30.14R FOG
BIG RAPIDS     CLEAR     55  53  92 CALM      30.16R
COLDWATER      CLEAR     56  56 100 CALM      30.16S
HOLLAND        CLEAR     56  55  97 CALM      30.15R FOG
GRAND RAPIDS   CLEAR     59  55  87 SE6       30.15S
KALAMAZOO      CLEAR     58  54  86 CALM      30.17R
MARSHALL       CLEAR     54  53  99 CALM      30.16S FOG
MOUNT PLEASANT   N/A     56  54  92 CALM      30.16R FOG
MUSKEGON       CLEAR     59  55  87 E5        30.14R
STURGIS        CLEAR     55  55 100 CALM      30.16R
$$
MIZ016>042-250900-
NORTHERN LOWER MICHIGAN

CITY           SKY/WX    TMP DP  RH WIND       PRES   REMARKS
ALPENA         CLEAR     52  51  97 CALM      30.15S
BEAVER ISLAND  CLEAR     48  48 100 CALM      30.15S
BELLAIRE       CLEAR     47  46  95 CALM      30.17R
CADILLAC       CLEAR     50  47  90 CALM      30.17R
CHARLEVOIX     CLEAR     55  51  87 SE3       30.18R
GAYLORD        CLEAR     51  46  83 CALM      30.17S
HOUGHTON LAKE  CLEAR     49  48  97 CALM      30.17S
MANISTEE       CLEAR     51  50  96 E5        30.15R
OSCODA         CLEAR     52  51  95 CALM      30.15R
PELLSTON       PTCLDY    46  46 100 CALM      30.16R
TRAVERSE CITY  CLEAR     52  49  89 CALM      30.14S
LUDINGTON      CLEAR     49  49 100 CALM      30.14R
$$
MIZ007>008-015-250900-
EASTERN UPPER MICHIGAN

CITY           SKY/WX    TMP DP  RH WIND       PRES   REMARKS
KINROSS        CLEAR     50  49  96 CALM      30.15S FOG
MACKINAC ISLAN CLEAR     54  54 100 N3        30.15R
NEWBERRY       CLEAR     46  45  97 S3        30.15S
S. S. MARIE    CLEAR     53  51  93 CALM      30.13F
$$
MIZ004>006-011>014-085-250900-
CENTRAL UPPER MICHIGAN

CITY           SKY/WX    TMP DP  RH WIND       PRES   REMARKS
MANISTIQUE     CLEAR     48  45  89 CALM      30.14S
ESCANABA       PTCLDY    53  52  96 CALM      30.14S
MENOMINEE      PTCLDY    55  54  96 CALM      30.15S
SAWYER-GWINN   CLEAR     55  52  91 S3        30.14S
$$
MIZ001>003-009>011-084-250900-
WESTERN UPPER MICHIGAN

CITY           SKY/WX    TMP DP  RH WIND       PRES   REMARKS
IRON MOUNTAIN  CLOUDY    55  51  86 SE3       30.14R
HOUGHTON       PTCLDY    60  53  77 S5        30.09S
COPPER HARBOR    N/A     62  52  69 SW9       30.07S
IRONWOOD       PTCLDY    62  56  80 S3        30.11R
$$

ABBREVIATIONS USED IN REMARKS
   TC - TEMPERATURE IN CELSIUS
  WCI - WIND CHILL INDEX
   HX - HEAT INDEX
  VSB - VISIBILITY





USA.gov is the U.S. government's official web portal to all federal, state and local government web resources and services.